[[[{"header":{"parameterUnit":"kt","parameterCategory":2,"dx":1,"dy":1,"la1":30.253999710083008,"la2":30.299108505249023,"lo1":-89.0895004272461,"lo2":-89.04439544677734,"nx":28,"ny":28,"refTime":"2022-10-29T21:00:00:Z","depth":0,"parameterNumber":1,"parameterNumberName":"U-component_of_WINDS"},"data":[0.7738,0.775,0.7721,0.7722,0.7696,0.7692,0.7682,0.7665,0.7645,0.7638,0.7628,0.7602,0.7571,0.7554,0.7543,0.7531,0.753,0.7554,0.7537,0.745,0.7436,0.7423,0.7418,0.7554,0.7554,0.7631,0.7632,0.7632,0.7678,0.7653,0.7645,0.7617,0.761,0.7569,0.7544,0.7541,0.7539,0.7514,0.7503,0.7494,0.7484,0.7444,0.743,0.7436,0.7416,0.7434,0.7434,0.743,0.7336,0.7331,0.745,0.745,0.745,0.745,0.745,0.745,0.7561,0.7569,0.7536,0.7526,0.7504,0.7487,0.7489,0.7456,0.7447,0.7428,0.7395,0.7393,0.7363,0.7331,0.7314,0.7311,0.7287,0.7298,0.7301,0.7305,0.7313,0.7208,0.7308,0.7307,0.7307,0.7306,0.7306,0,0.7467,0.7443,0.7432,0.7414,0.7405,0.7388,0.7368,0.7368,0.7307,0.7303,0.7295,0.7286,0.7268,0.7258,0.7238,0.7217,0.7175,0.7167,0.7175,0.7191,0.7209,0.7201,0.705,0.7165,0.7163,0.7163,0.7162,0.7161,0.7349,0.7361,0.7311,0.7308,0.7289,0.7285,0.7276,0.7221,0.7214,0.7181,0.7192,0.718,0.7168,0.7161,0.7122,0.7109,0.7089,0.7136,0.7087,0.7102,0.7091,0.7091,0.7093,0.7147,0.7149,0.715,0.7152,0,0.7286,0.7237,0.7247,0.7196,0.7184,0.72,0.7157,0.7162,0.7128,0.7132,0.7129,0.7077,0.707,0.7023,0.7006,0.6982,0.701,0.699,0.702,0.7014,0.7052,0.705,0.7182,0.7197,0.7054,0.7056,0.7057,0,0.7166,0.7184,0.7112,0.712,0.7138,0.708,0.71,0.7073,0.7045,0.7047,0.699,0.6994,0.6932,0.6929,0.6894,0.6908,0.6904,0.6887,0.6878,0.6893,0.6895,0.689,0.6885,0.6854,0.6853,0.6853,0.6852,0,0.7073,0.7054,0.7066,0.7054,0.7002,0.7009,0.6988,0.6956,0.6948,0.693,0.6925,0.6909,0.6901,0.689,0.6844,0.6813,0.6859,0.6807,0.6842,0.6844,0.6856,0.6856,0.6984,0.6851,0.6851,0.6851,0.6851,0,0.697,0.6951,0.6975,0.6931,0.6928,0.6936,0.6915,0.6911,0.6881,0.6859,0.6844,0.6801,0.6808,0.676,0.6769,0.6741,0.6737,0.672,0.6722,0.6721,0.6668,0.6749,0.6873,0.6885,0.6719,0.6718,0.6717,0,0.6877,0.6888,0.6838,0.6862,0.6861,0.6797,0.6805,0.678,0.675,0.6745,0.6712,0.6707,0.666,0.6652,0.6663,0.663,0.6666,0.6623,0.662,0.6621,0.6631,0.6745,0.6776,0.6851,0.6702,0.6704,0.6705,0,0.6799,0.6734,0.6742,0.6726,0.6682,0.668,0.6689,0.667,0.667,0.6647,0.6655,0.6646,0.661,0.6598,0.6561,0.6575,0.664,0.6535,0.6534,0.6557,0.669,0.672,0.6732,0.6612,0.6614,0.6615,0.6693,0,0.6658,0.6656,0.6673,0.6639,0.663,0.6642,0.6589,0.6586,0.6551,0.6519,0.6528,0.6495,0.6477,0.6478,0.6444,0.649,0.6475,0.6438,0.6388,0.6463,0.6487,0.6497,0.6356,0.6354,0.6353,0.6351,0,0,0.6582,0.6578,0.6522,0.6528,0.6516,0.6449,0.6467,0.6448,0.6412,0.6407,0.6378,0.6361,0.6336,0.6352,0.6371,0.6364,0.6368,0.6344,0.6427,0.6436,0.6444,0.6471,0.6482,0.6349,0.6348,0.6348,0.6347,0,0.6519,0.6491,0.6508,0.6486,0.6451,0.6415,0.6419,0.6373,0.6353,0.636,0.6306,0.6305,0.6293,0.6274,0.6262,0.634,0.63,0.6338,0.6398,0.6414,0.6425,0.6434,0.6463,0.6474,0.6344,0.6344,0.6344,0,0.6434,0.6399,0.6401,0.637,0.6347,0.6346,0.6281,0.6283,0.6282,0.6209,0.6218,0.6193,0.6162,0.6183,0.6191,0.6166,0.6241,0.6208,0.6216,0.6216,0.6229,0.6242,0.6253,0.6103,0.6102,0.6102,0,0,0.6388,0.6385,0.6329,0.6353,0.6342,0.6289,0.6283,0.6247,0.6219,0.6209,0.6175,0.6152,0.6144,0.614,0.613,0.6161,0.6151,0.618,0.6191,0.6201,0.6206,0.6222,0.6235,0.6099,0.6099,0.6099,0,0,0.6365,0.6302,0.627,0.629,0.6266,0.6214,0.6231,0.6192,0.6177,0.617,0.611,0.6101,0.612,0.6098,0.6072,0.6112,0.6064,0.6069,0.6126,0.614,0.6151,0.6157,0.6001,0,0,0,0,0,0.6274,0.6309,0.6282,0.6277,0.6238,0.6229,0.6224,0.6174,0.6141,0.6156,0.6122,0.6078,0.6071,0.6047,0.6044,0.6074,0.6069,0.6074,0.6079,0.616,0.6175,0.6187,0,0,0,0,0,0,0.6271,0.6266,0.628,0.6231,0.6221,0.6227,0.616,0.6148,0.6138,0.613,0.6086,0.6077,0.6036,0.6045,0.6043,0.6073,0.6001,0.6071,0.6075,0.6079,0.6165,0.6177,0.6188,0,0,0,0,0,0.6269,0.6265,0.6215,0.623,0.6222,0.6165,0.6158,0.6147,0.6139,0.6086,0.6076,0.6103,0.6038,0.6033,0.6044,0.6075,0.6002,0.6002,0.6074,0.6077,0.6081,0.6171,0,0,0,0,0,0,0.6268,0.6255,0.6212,0.6208,0.6212,0.6163,0.6154,0.6148,0.6095,0.6085,0.61,0.6094,0.604,0.6036,0.6032,0.6078,0.6003,0.6003,0.6002,0.6076,0.6079,0.6082,0,0,0,0,0,0,0.6257,0.6252,0.621,0.6191,0.6184,0.6162,0.6154,0.6156,0.6096,0.6112,0.6105,0.6098,0.6046,0.6038,0.6035,0.604,0.6004,0.6003,0.6003,0.6003,0.6079,0.6081,0,0,0,0,0,0,0.6254,0.625,0.6191,0.6186,0.618,0.6129,0.6163,0.6127,0.6078,0.6115,0.6072,0.607,0.6049,0.6045,0.6037,0.6044,0.6041,0.6004,0.6003,0.6003,0.6003,0,0,0,0,0,0,0,0.6252,0.6293,0.6237,0.6182,0.6177,0.6169,0.6168,0.6167,0.6077,0.6075,0.6073,0.6071,0.6006,0.6006,0.6005,0.6047,0,0,0.6004,0.6003,0,0,0,0,0,0,0,0,0.6294,0.6293,0.6237,0.6236,0.6235,0.6169,0.6168,0.6167,0.6077,0.6075,0.6073,0.6072,0.6006,0.6006,0.6005,0,0,0,0,0,0,0,0,0,0,0,0,0,0,0,0.6237,0.6236,0,0.6169,0.6168,0.6167,0.6077,0.6075,0.6074,0.6072,0.6006,0.6006,0.6005,0,0,0,0,0,0,0,0,0,0,0,0,0,0,0,0,0,0,0,0,0,0,0,0,0,0,0,0,0,0,0,0,0,0,0,0,0,0,0,0,0,0,0,0,0,0,0,0,0,0,0,0,0,0,0,0,0,0,0,0,0,0,0,0,0,0,0,0,0]}],[{"header":{"parameterUnit":"kt","parameterCategory":2,"dx":1,"dy":1,"la1":30.253999710083008,"la2":30.299108505249023,"lo1":-89.0895004272461,"lo2":-89.04439544677734,"nx":28,"ny":28,"refTime":"2022-10-29T21:00:00:Z","depth":0,"parameterNumber":2,"parameterNumberName":"V-component_of_WINDS"},"data":[-0.9551,-0.9565,-0.9547,-0.9555,-0.954,-0.9542,-0.9537,-0.9528,-0.9517,-0.9517,-0.9513,-0.9496,-0.9478,-0.9469,-0.9464,-0.9457,-0.9456,-0.9475,-0.9462,-0.9397,-0.9387,-0.9377,-0.9373,-0.9475,-0.9475,-0.9532,-0.9533,-0.9533,-0.9505,-0.9491,-0.9489,-0.9476,-0.9474,-0.9446,-0.9432,-0.9433,-0.9436,-0.9422,-0.9417,-0.9416,-0.9412,-0.9387,-0.938,-0.9386,-0.9372,-0.9385,-0.9385,-0.9382,-0.9312,-0.9307,-0.9397,-0.9397,-0.9397,-0.9397,-0.9397,-0.9397,-0.9416,-0.9426,-0.9406,-0.9405,-0.9393,-0.9384,-0.9389,-0.9368,-0.9366,-0.9357,-0.9335,-0.9338,-0.932,-0.9303,-0.9293,-0.9294,-0.9275,-0.9284,-0.9286,-0.9289,-0.9295,-0.9214,-0.9292,-0.9291,-0.9291,-0.9291,-0.9291,0,-0.9345,-0.9329,-0.9327,-0.9319,-0.9316,-0.9308,-0.9298,-0.9301,-0.926,-0.9261,-0.926,-0.9256,-0.9248,-0.9245,-0.9235,-0.9222,-0.9192,-0.9187,-0.9193,-0.9203,-0.9214,-0.9208,-0.9095,-0.9185,-0.9184,-0.9183,-0.9182,-0.9182,-0.9254,-0.9267,-0.9238,-0.9239,-0.9228,-0.923,-0.9227,-0.919,-0.9189,-0.917,-0.918,-0.9176,-0.9171,-0.9173,-0.9147,-0.9142,-0.9127,-0.9163,-0.9126,-0.9136,-0.9127,-0.9127,-0.9128,-0.9171,-0.9173,-0.9174,-0.9175,0,-0.9204,-0.9174,-0.9188,-0.9157,-0.915,-0.9166,-0.914,-0.9147,-0.9125,-0.9133,-0.9132,-0.9098,-0.9098,-0.9066,-0.9059,-0.9043,-0.9067,-0.9053,-0.9073,-0.9069,-0.9098,-0.9096,-0.9198,-0.921,-0.9104,-0.9105,-0.9106,0,-0.9114,-0.9133,-0.9086,-0.9096,-0.9115,-0.9077,-0.9097,-0.908,-0.9064,-0.9069,-0.903,-0.9036,-0.8994,-0.8996,-0.8971,-0.8986,-0.8985,-0.8973,-0.8966,-0.8976,-0.8978,-0.8975,-0.897,-0.8951,-0.895,-0.895,-0.8949,0,-0.904,-0.9036,-0.9052,-0.9046,-0.9015,-0.9023,-0.9011,-0.8992,-0.899,-0.8982,-0.898,-0.8973,-0.8969,-0.8965,-0.8933,-0.8909,-0.895,-0.8911,-0.8938,-0.8939,-0.8949,-0.8949,-0.9048,-0.8949,-0.8948,-0.8948,-0.8948,0,-0.8962,-0.8954,-0.8982,-0.8955,-0.8955,-0.8966,-0.8956,-0.8958,-0.8941,-0.8926,-0.8919,-0.8889,-0.8899,-0.8862,-0.8875,-0.8853,-0.8851,-0.8841,-0.8842,-0.8841,-0.88,-0.886,-0.8958,-0.8967,-0.884,-0.8839,-0.8838,0,-0.8885,-0.8904,-0.8871,-0.8898,-0.8902,-0.8857,-0.8868,-0.8854,-0.8835,-0.8836,-0.8815,-0.8817,-0.8782,-0.8778,-0.8789,-0.8767,-0.8797,-0.8762,-0.8764,-0.8765,-0.877,-0.8859,-0.8881,-0.894,-0.8827,-0.8828,-0.8829,0,-0.8821,-0.8783,-0.879,-0.8782,-0.8757,-0.8761,-0.8773,-0.8766,-0.8769,-0.8757,-0.8767,-0.8768,-0.8742,-0.8736,-0.8711,-0.8724,-0.8776,-0.8694,-0.8693,-0.871,-0.8818,-0.8839,-0.8849,-0.8756,-0.8757,-0.8758,-0.8819,0,-0.8711,-0.8716,-0.8734,-0.8717,-0.8714,-0.8729,-0.8695,-0.8697,-0.8672,-0.8652,-0.8665,-0.8646,-0.8639,-0.8642,-0.8618,-0.8658,-0.8646,-0.8619,-0.858,-0.8639,-0.8658,-0.8666,-0.8554,-0.8553,-0.8552,-0.8551,0,0,-0.8644,-0.8651,-0.8615,-0.8625,-0.8621,-0.8573,-0.8592,-0.8583,-0.8565,-0.8563,-0.8541,-0.854,-0.8526,-0.8545,-0.8561,-0.8558,-0.8562,-0.8543,-0.8611,-0.8618,-0.8624,-0.8646,-0.8654,-0.8549,-0.8548,-0.8548,-0.8548,0,-0.8596,-0.8582,-0.8601,-0.8589,-0.857,-0.8547,-0.8552,-0.8525,-0.8513,-0.8526,-0.8487,-0.849,-0.8491,-0.848,-0.8475,-0.854,-0.851,-0.854,-0.8586,-0.8601,-0.861,-0.8617,-0.8639,-0.8648,-0.8545,-0.8545,-0.8545,0,-0.8527,-0.8507,-0.8513,-0.85,-0.8488,-0.8493,-0.8444,-0.8452,-0.8456,-0.8404,-0.8418,-0.8402,-0.8385,-0.8409,-0.8418,-0.8398,-0.8465,-0.8438,-0.8444,-0.8444,-0.8457,-0.8467,-0.8476,-0.8357,-0.8357,-0.8356,0,0,-0.8491,-0.8495,-0.8462,-0.8487,-0.8482,-0.8448,-0.8448,-0.8423,-0.8409,-0.8403,-0.8382,-0.837,-0.8369,-0.837,-0.8368,-0.8399,-0.8392,-0.8416,-0.8425,-0.8432,-0.8437,-0.8451,-0.8461,-0.8354,-0.8354,-0.8354,0,0,-0.8473,-0.8435,-0.8413,-0.8438,-0.8426,-0.8395,-0.8411,-0.8384,-0.8378,-0.8373,-0.8332,-0.8327,-0.8348,-0.8335,-0.8312,-0.8354,-0.8316,-0.8321,-0.8362,-0.8373,-0.8381,-0.8384,-0.8259,0,0,0,0,0,-0.8406,-0.844,-0.842,-0.8419,-0.8403,-0.8406,-0.8403,-0.837,-0.8344,-0.8358,-0.8336,-0.8305,-0.8314,-0.8294,-0.8293,-0.8318,-0.8329,-0.8334,-0.8338,-0.8398,-0.8409,-0.8419,0,0,0,0,0,0,-0.8406,-0.8405,-0.8419,-0.839,-0.8386,-0.8404,-0.8352,-0.8344,-0.8342,-0.8335,-0.831,-0.8304,-0.8276,-0.8291,-0.8292,-0.8316,-0.8259,-0.8331,-0.8335,-0.8338,-0.8401,-0.8411,-0.8419,0,0,0,0,0,-0.8405,-0.8404,-0.8388,-0.8389,-0.8386,-0.835,-0.8351,-0.8344,-0.8341,-0.8308,-0.8301,-0.8316,-0.8278,-0.8276,-0.8291,-0.8317,-0.8259,-0.8259,-0.8333,-0.8336,-0.8339,-0.8406,0,0,0,0,0,0,-0.8404,-0.8398,-0.8386,-0.8384,-0.8374,-0.8348,-0.8343,-0.8343,-0.8313,-0.8306,-0.8312,-0.8307,-0.8279,-0.8277,-0.8276,-0.8319,-0.8258,-0.8259,-0.8259,-0.8336,-0.8338,-0.834,0,0,0,0,0,0,-0.8398,-0.8396,-0.8385,-0.8368,-0.8363,-0.8347,-0.8342,-0.8351,-0.8313,-0.8318,-0.8314,-0.831,-0.8281,-0.8279,-0.8277,-0.8292,-0.8258,-0.8258,-0.8259,-0.8259,-0.8337,-0.8339,0,0,0,0,0,0,-0.8396,-0.8395,-0.8368,-0.8364,-0.836,-0.8333,-0.8354,-0.834,-0.8298,-0.8321,-0.8293,-0.8291,-0.8284,-0.8282,-0.8279,-0.8295,-0.8293,-0.8258,-0.8258,-0.8258,-0.8258,0,0,0,0,0,0,0,-0.8395,-0.8414,-0.84,-0.8362,-0.8358,-0.8363,-0.8362,-0.8362,-0.8297,-0.8296,-0.8294,-0.8292,-0.8257,-0.8257,-0.8257,-0.8296,0,0,-0.8258,-0.8258,0,0,0,0,0,0,0,0,-0.8413,-0.8414,-0.84,-0.8399,-0.8399,-0.8363,-0.8363,-0.8362,-0.8297,-0.8296,-0.8294,-0.8293,-0.8257,-0.8257,-0.8257,0,0,0,0,0,0,0,0,0,0,0,0,0,0,0,-0.8399,-0.8399,0,-0.8363,-0.8363,-0.8362,-0.8297,-0.8296,-0.8294,-0.8293,-0.8257,-0.8257,-0.8257,0,0,0,0,0,0,0,0,0,0,0,0,0,0,0,0,0,0,0,0,0,0,0,0,0,0,0,0,0,0,0,0,0,0,0,0,0,0,0,0,0,0,0,0,0,0,0,0,0,0,0,0,0,0,0,0,0,0,0,0,0,0,0,0,0,0,0,0,0]}]]]